Loisir ou Compétition : Rejoignez un Club de la Fédération

Résultats

GRAND PRIX DE MEGEVE

MEGEVE

KO-QLF Hommes

Jury de Compétition

Délégué Technique :
PIQUOT SYLVAIN ()
D.T. Adjoint :
 
Dir. Epreuve :
PORRET THIERRY (MB)

Caractéristiques de la Piste

Piste :
LA LIVRAZ
Distance :
1KM km
Point Haut :
 
Point Bas :
 
Montée Tot. :
 
Montée Max. :
 
Homologation :
2016-63-1

Pénalité Appliquée :
 
Coefficient :
 

Catégorie :
U13
Style :
L
Clt Dos Clt/Cat Code An Nom Prénom Com Club Temps Ecart Points
Classés
1 126 1/U13 FFS2676910 2005 CLAVEL Simon MB CS LA CLUSAZ 2:37.64 00.00
2 128 2/U13 FFS2667744 2005 BIZZOCCHI ESTEBAN MB SC D'AGY 2:38.20 00.56
3 125 3/U13 FFS2686938 2005 VALLEIX JORIS MB SCNP ROCHOIS 2:39.21 01.57
4 130 4/U13 FFS2686242 2005 VIGUIER Quentin MB CS LA CLUSAZ 2:39.70 02.06
5 137 5/U13 FFS2686663 2005 [I]PERRILLAT-BOITEUX Anthony MB SC GD BORNAN 2:40.87 03.23
6 124 6/U13 FFS2671565 2005 COLOMBAN ALEXIS MB SCNP ROCHOIS 2:45.69 08.05
7 139 7/U13 FFS2686793 2005 MARIE ADELIN MB SC D'AGY 2:45.79 08.15
8 142 8/U13 FFS2686260 2005 Bossut Augustin MB PRAZ LYS-SOM 2:45.98 08.34
9 133 9/U13 FFS2686539 2005 LACROIX MATTHIAS MB DRAGONS ANNY 2:46.79 09.15
10 138 10/U13 FFS2686681 2005 DELOCHE Lino MB SC GD BORNAN 2:49.77 12.13
11 131 11/U13 FFS2673756 2005 PEYRON ARTHUR MB CS CHAMONIX 2:49.83 12.19
12 141 12/U13 FFS2686795 2005 DELERCE THIBAULT MB SC D'AGY 2:50.58 12.94
13 129 13/U13 FFS2686695 2005 [I]PERRILLAT-BOTTONET Judica MB SC GD BORNAN 2:52.22 14.58
14 132 14/U13 FFS2686939 2005 GRENARD MAX MB SCNP ROCHOIS 2:52.26 14.62
15 151 15/U13 FFS2681171 2005 LUZET Hugo MB CS LA CLUSAZ 2:55.50 17.86
16 145 16/U13 FFS2666324 2005 [I]FAVRE FELIX Kilian MB SC GD BORNAN 2:55.61 17.97
17 158 17/U13 FFS2686538 2005 JOMIER LOIS MB DRAGONS ANNY 2:56.23 18.59
18 147 18/U13 FFS2687455 2005 FOUCAULT LECERF MAE MB SCNP ROCHOIS 2:56.36 18.72
19 144 19/U13 FFS2686543 2005 ROMERI NATHAN MB DRAGONS ANNY 2:57.64 20.00
20 155 20/U13 FFS2681304 2005 PERSONNAZ LOAN MB DRAGONS ANNY 2:57.86 20.22
21 146 21/U13 FFS2686535 2005 FAILLENET JORIS MB DRAGONS ANNY 2:59.29 21.65
22 134 22/U13 FFS2686672 2005 BROCHANT Lucas MB SC GD BORNAN 3:00.92 23.28
23 152 23/U13 FFS2690844 2005 HAEBERLI Arthur MB CS LA CLUSAZ 3:01.15 23.51
24 150 24/U13 FFS2687103 2005 MOREAU SIMEON MB SCNP ROCHOIS 3:02.98 25.34
25 127 25/U13 FFS2687034 2005 FIVEL DEMORET HUGO MB SC CONTAMINE 3:04.51 26.87
26 157 26/U13 FFS2688657 2005 BARD ILANN MB VILLARD/BOEG 3:05.20 27.56
27 156 27/U13 FFS2687102 2005 SYLVESTRE BARON PAUL MB SCNP ROCHOIS 3:05.36 27.72
28 149 28/U13 FFS2688043 2005 MAGNIEZ OSCAR MB DRAGONS ANNY 3:05.53 27.89
29 159 29/U13 FFS2681424 2005 BOUVEROT TINO MB SC CONTAMINE 3:06.99 29.35
30 136 30/U13 FFS2686940 2005 LEVET PROSPER MB SCNP ROCHOIS 3:07.37 29.73
31 166 31/U13 FFS2686801 2005 GARBY KEVIN MB SC D'AGY 3:07.53 29.89
32 148 32/U13 FFS2687035 2005 CORNU MATHIEU MB CS CHAMONIX 3:07.83 30.19
33 135 33/U13 FFS2688658 2005 COLLOMB EMILIO MB VILLARD/BOEG 3:08.32 30.68
34 164 34/U13 FFS2692062 2005 AFLALO CYPRIEN MB CHABLAIS NOR 3:10.97 33.33
35 153 35/U13 FFS2686262 2005 Lessertisseux Valentin MB PRAZ LYS-SOM 3:11.02 33.38
36 163 36/U13 FFS2687856 2005 VEISY KILLIAN MB EN HT GIFFRE 3:13.90 36.26
37 143 37/U13 FFS2686259 2005 Ducrey Brice MB PRAZ LYS-SOM 3:15.31 37.67
38 140 38/U13 FFS2688678 2005 REPELLIN CHARLES MB VILLARD/BOEG 3:15.85 38.21
39 167 39/U13 FFS2686905 2005 MIR EMARATI MILO MB CS CHAMONIX 3:17.18 39.54
40 169 40/U13 FFS2686531 2005 BALDUCCI UGO MB DRAGONS ANNY 3:18.04 40.40
41 161 41/U13 FFS2676738 2005 CHETAIL JULES MB CS MEGEVE 3:24.97 47.33
42 168 42/U13 FFS2686914 2005 LESCOUFF RONAN MB CS CHAMONIX 3:27.95 50.31
Non partants
154 FFS2686544 2005 SOULAS MALO MB DRAGONS ANNY
160 FFS2687490 2005 DAGAND LUBIN MB DRAGONS ANNY
165 FFS2687763 2005 HARDY VALENTIN MB CS MEGEVE